リニア彗星

C/2005 H1 ( LINEAR )

English version
Home page
Updated on November 12, 2005

---------------------------------------------------------------------

・ プロフィール

発見日 2005年4月30日
発見光度 20.3等
発見者 Lincoln Laboratory Near-Earth Asteroid Research project

・ 軌道要素

Epoch 2004 Nov. 11.0 TT = JDT 2453320.5
T 2004 Oct. 28.38358 TT                                 MPC
q   4.7683529            (2000.0)            P               Q
z  +0.0215950      Peri.   95.19348     -0.16811862     -0.30352295
 +/-0.0000000      Node    71.48851     -0.42774273     -0.83471936
e   0.8970276      Incl.   81.51271     +0.88812853     -0.45947515

・ 星図

・ 光度変化

        m1 = 9.0 + 5 logΔ + 10.0 log r

---------------------------------------------------------------------

軌道要素はM.P.E.C. 2005-O04に掲載されたものです。
星図は StellaNavigator Ver.2.0 for Windows (アストロアーツ 編著 / アスキー出版局刊) で作成したものです。
光度グラフはComet for Windowsで作成したものです。

---------------------------------------------------------------------

Copyright(C) Seiichi Yoshida (comet@aerith.net). All rights reserved.